Montgomery, AL

5:27 AM CST on February 20, 2017 (GMT -0600)
Montgomery Regional

Weather History for KMGM - January, 2014

Change the Weather History Date:

Monday, January 27, 2014

  Actual Average Record
Temperature  
Mean Temperature 50 °F 47 °F  
Max Temperature 65 °F 58 °F 79 °F (1999)
Min Temperature 35 °F 36 °F 10 °F (1940)
Degree Days  
Heating Degree Days 15 18  
Month to date heating degree days 637 506  
Since 1 July heating degree days 1431 1394  
Moisture  
Dew Point 42 °F    
Average Humidity 63    
Maximum Humidity 96    
Minimum Humidity 29    
Precipitation  
Precipitation 0.07 in 0.17 in 1.16 in (1874)
Month to date precipitation 2.36 3.96  
Year to date precipitation 2.36 3.96  
Snow  
Snow 0.00 in 0.00 in - ()
Month to date snowfall 0.0 0.0  
Since 1 July snowfall 0.0 0.1  
Snow Depth 0.00 in    
Sea Level Pressure  
Sea Level Pressure 29.98 in    
Wind  
Wind Speed 6 mph (NNW)    
Max Wind Speed 20 mph    
Max Gust Speed 28 mph    
Visibility 8 miles    
Events Rain    
T = Trace of Precipitation, MM = Missing Value Source: NWS Daily Summary

Daily Weather History Graph

Daily Weather History Graph

Search for Another Location

Airport or City:

Trip Planner

Search our weather history database for the weather conditions in past years. The results will help you decide how hot, cold, wet, or windy it might be!

Date:

Astronomy

Jan. 27, 2014 Rise Set
Actual Time 6:42 AM CST 5:14 PM CST
Civil Twilight 6:16 AM CST 5:40 PM CST
Nautical Twilight 5:47 AM CST 6:09 PM CST
Astronomical Twilight 5:18 AM CST 6:39 PM CST
Moon 3:20 AM CST (1/27) 2:02 PM CST (1/27)
Length of Visible Light 11h 23m
Length of Day
10h 31m
Waning Crescent, 14% of the Moon is Illuminated
Jan 27
Waning Crescent
Jan 30
New
Feb 6
First Quarter
Feb 14
Full
Feb 22
Last Quarter

Hourly Weather History & Observations

Time (CST) Temp. Windchill Dew Point Humidity Pressure Visibility Wind Dir Wind Speed Gust Speed Precip Events Conditions
12:53 AM 48.9 °F - 39.9 °F 71% 29.92 in 10.0 mi South 4.6 mph - N/A   Mostly Cloudy
1:53 AM 50.0 °F - 43.0 °F 77% 29.91 in 10.0 mi SSW 5.8 mph - N/A   Scattered Clouds
2:44 AM 51.8 °F - 44.6 °F 76% 29.92 in 10.0 mi SSW 5.8 mph - N/A   Mostly Cloudy
2:53 AM 51.1 °F - 45.0 °F 80% 29.93 in 10.0 mi SW 4.6 mph - N/A   Overcast
3:35 AM 51.8 °F - 46.4 °F 82% 29.92 in 10.0 mi SSW 4.6 mph - N/A   Overcast
3:53 AM 51.1 °F - 46.0 °F 83% 29.92 in 10.0 mi Calm Calm - N/A   Mostly Cloudy
4:00 AM 51.8 °F - 46.4 °F 82% 29.93 in 10.0 mi Calm Calm - N/A   Overcast
4:16 AM 51.8 °F - 46.4 °F 82% 29.92 in 10.0 mi Calm Calm - N/A   Overcast
4:44 AM 50.0 °F - 46.4 °F 87% 29.92 in 10.0 mi Calm Calm - N/A   Mostly Cloudy
4:53 AM 48.0 °F - 44.1 °F 86% 29.92 in 10.0 mi Calm Calm - N/A   Scattered Clouds
5:08 AM 46.4 °F - 44.6 °F 93% 29.92 in 10.0 mi Calm Calm - N/A   Mostly Cloudy
5:38 AM 46.4 °F 45.2 °F 44.6 °F 93% 29.92 in 8.0 mi East 3.5 mph - N/A   Mostly Cloudy
5:53 AM 46.0 °F 44.8 °F 44.1 °F 93% 29.92 in 7.0 mi East 3.5 mph - N/A   Mostly Cloudy
6:53 AM 48.0 °F - 45.0 °F 89% 29.93 in 8.0 mi ENE 3.5 mph - N/A   Overcast
7:18 AM 48.2 °F - 46.4 °F 93% 29.93 in 8.0 mi East 4.6 mph - N/A   Overcast
7:45 AM 50.0 °F - 46.4 °F 87% 29.97 in 5.0 mi NNW 11.5 mph 27.6 mph 0.00 in Rain Light Rain
7:53 AM 50.0 °F - 48.0 °F 93% 29.96 in 3.0 mi Calm Calm - 0.02 in Rain Rain
8:03 AM 50.0 °F - 48.2 °F 94% 29.96 in 2.0 mi Calm Calm - 0.02 in Rain Rain
8:11 AM 50.0 °F - 48.2 °F 94% 29.95 in 1.8 mi SE 3.5 mph - 0.03 in Rain Light Rain
8:20 AM 51.8 °F - 48.2 °F 88% 29.96 in 2.0 mi Calm Calm - 0.04 in Rain Light Rain
8:27 AM 51.8 °F - 48.2 °F 88% 29.96 in 1.5 mi Calm Calm - 0.04 in Rain Light Rain
8:40 AM 51.8 °F - 50.0 °F 94% 29.96 in 1.2 mi Calm Calm - 0.05 in Rain Light Rain
8:45 AM 51.8 °F - 50.0 °F 94% 29.97 in 1.5 mi Calm Calm - 0.05 in Rain Light Rain
8:53 AM 52.0 °F - 50.0 °F 93% 29.97 in 1.8 mi Calm Calm - 0.05 in Rain Light Rain
8:58 AM 51.8 °F - 51.8 °F 100% 29.97 in 2.0 mi Calm Calm - 0.00 in   Overcast
9:11 AM 53.6 °F - 51.8 °F 94% 29.98 in 2.5 mi Calm Calm - 0.00 in   Overcast
9:17 AM 53.6 °F - 50.0 °F 88% 29.98 in 2.5 mi Calm Calm - 0.00 in   Overcast
9:53 AM 53.1 °F - 51.1 °F 93% 29.98 in 2.0 mi Calm Calm - 0.00 in   Overcast
10:00 AM 53.6 °F - 51.8 °F 94% 29.99 in 2.0 mi Calm Calm - N/A   Overcast
10:07 AM 53.6 °F - 51.8 °F 94% 29.99 in 2.0 mi WNW 3.5 mph - N/A   Overcast
10:53 AM 57.0 °F - 53.1 °F 87% 29.98 in 10.0 mi WNW 5.8 mph - N/A   Mostly Cloudy
11:05 AM 57.2 °F - 51.8 °F 82% 29.98 in 10.0 mi WNW 5.8 mph - N/A   Mostly Cloudy
11:53 AM 61.0 °F - 52.0 °F 72% 29.97 in 10.0 mi NNW 8.1 mph - N/A   Overcast
12:08 PM 60.8 °F - 50.0 °F 68% 29.96 in 10.0 mi North 8.1 mph - N/A   Overcast
12:53 PM 61.0 °F - 50.0 °F 67% 29.94 in 10.0 mi NNE 4.6 mph - N/A   Mostly Cloudy
1:08 PM 62.6 °F - 50.0 °F 63% 29.94 in 10.0 mi NNW 3.5 mph - N/A   Mostly Cloudy
1:53 PM 63.0 °F - 48.9 °F 60% 29.93 in 10.0 mi North 3.5 mph - N/A   Overcast
2:01 PM 62.6 °F - 48.2 °F 59% 29.93 in 10.0 mi Calm Calm - N/A   Overcast
2:53 PM 64.9 °F - 46.9 °F 52% 29.94 in 10.0 mi North 4.6 mph - N/A   Overcast
3:53 PM 62.1 °F - 42.1 °F 48% 29.95 in 10.0 mi NW 6.9 mph - N/A   Partly Cloudy
4:53 PM 57.9 °F - 35.1 °F 42% 29.97 in 10.0 mi NNW 10.4 mph - N/A   Partly Cloudy
5:53 PM 53.1 °F - 30.9 °F 43% 30.01 in 10.0 mi North 15.0 mph 21.9 mph N/A   Clear
6:53 PM 48.9 °F - 26.1 °F 41% 30.06 in 10.0 mi NNW 16.1 mph - N/A   Clear
7:53 PM 46.0 °F 41.0 °F 21.0 °F 37% 30.10 in 10.0 mi NNW 10.4 mph - N/A   Clear
8:53 PM 42.1 °F 37.1 °F 14.0 °F 32% 30.11 in 10.0 mi North 8.1 mph - N/A   Clear
9:53 PM 39.0 °F 32.3 °F 10.0 °F 30% 30.12 in 10.0 mi NNW 10.4 mph - N/A   Clear
10:53 PM 37.0 °F 29.3 °F 9.0 °F 31% 30.14 in 10.0 mi NNW 11.5 mph - N/A   Partly Cloudy
11:53 PM 35.1 °F 25.9 °F 5.0 °F 28% 30.17 in 10.0 mi North 13.8 mph - N/A   Mostly Cloudy